Starlink 30576

operational
NORAD ID: 58065 Int'l Des: 2023-158 Owner: SPXS Country: US Constellation: starlink
LEOCIRCULAR

Starlink 30576について

説明を読み込み中...

リアルタイム位置

3D地球を読み込み中...

次回通過

高度履歴

Altitude vs Time

uPlot chart will show altitude changes over time

軌道要素

1 58065U 23158Q 25305.61782447 .00000117 00000-0 23743-4 0 9999
2 58065 43.0051 6.4427 0001345 267.2419 92.8270 15.02531157114268
Epoch: Nov 1, 2025 • Age: 55 hours

現在のステータス

高度 563.0 km
速度 7.59 km/s
衛星直下点 42.68°N, 68.57°E
打ち上げ日 Oct 13, 2023
運用期間 2 years
タイプ internet

技術仕様

分類 Payload
質量 730.00 kg
乾燥質量 700.00 kg
総質量 730.00 kg
長さ 0.30 m
直径 4.10 m
スパン 29.00 m
形状 Box + pan
製造者 SPXS
バスタイプ Starlink V2M
フェーズステータス In Orbit
所有者/国 SPXS/US

大規模コンステレーション

Loading constellations...